Weather History for Hamilton, OH

Change the Weather History Date:

Monday, December 10, 2012

  Actual Average (KCVG) Record (KCVG)
Temperature  
Mean Temperature 44 °F 35 °F  
Max Temperature 55 °F 43 °F 67 °F (1971)
Min Temperature 33 °F 28 °F -8 °F (1917)
Degree Days  
Heating Degree Days 21 30  
Month to date heating degree days 281  
Since 1 July heating degree days 1241  
Cooling Degree Days 0 0  
Month to date cooling degree days 0  
Year to date cooling degree days 1121  
Moisture  
Dew Point 39 °F    
Average Humidity 85    
Maximum Humidity 97    
Minimum Humidity 70    
Precipitation  
Precipitation 0.03 in 0.11 in 1.27 in (1879)
Month to date precipitation 1.12  
Year to date precipitation 40.27  
Snow  
Snow 0.00 in 0.20 in 3.30 in (1932)
Month to date snowfall 1.1  
Since 1 July snowfall 1.9  
Snow Depth -    
Sea Level Pressure  
Sea Level Pressure 29.77 in    
Wind  
Wind Speed 8 mph (WNW)    
Max Wind Speed 16 mph    
Max Gust Speed 20 mph    
Visibility 9 miles    
Events Rain    
T = Trace of Precipitation, MM = Missing Value Source: NWS Daily Summary

Daily Weather History Graph

Daily Weather History Graph

Search for Another Location

Airport:

Trip Planner

Search our weather history database for the weather conditions in past years. The results will help you decide how hot, cold, wet, or windy it might be!

Date:

Astronomy

Dec. 10, 2012 Rise Set
Actual Time 7:47 AM EST 5:14 PM EST
Civil Twilight 7:17 AM EST 5:44 PM EST
Nautical Twilight 6:43 AM EST 6:18 PM EST
Astronomical Twilight 6:11 AM EST 6:51 PM EST
Moon 4:30 AM EST (12/10) 3:02 PM EST (12/10)
Length of Visible Light 10h 27m
Length of Day
9h 27m
Waning Crescent, 10% of the Moon is Illuminated
Dec 10
Waning Crescent
Dec 13
New
Dec 20
First Quarter
Dec 28
Full
Jan 4
Last Quarter

Hourly Weather History & Observations

Time (EST) Temp. Windchill Dew Point Humidity Pressure Visibility Wind Dir Wind Speed Gust Speed Precip Events Conditions
12:19 AM 55.4 °F - 53.6 °F 94% 29.70 in 10.0 mi Calm Calm - 0.01 in   Overcast
12:53 AM 55.9 °F - 54.0 °F 93% 29.70 in 10.0 mi SSW 4.6 mph - 0.01 in   Overcast
1:53 AM 55.9 °F - 55.0 °F 97% 29.70 in 4.0 mi SW 4.6 mph - 0.00 in Rain Light Rain
2:45 AM 51.8 °F - 50.0 °F 94% 29.71 in 6.0 mi WNW 10.4 mph - 0.01 in   Overcast
2:53 AM 52.0 °F - 50.0 °F 93% 29.72 in 5.0 mi WNW 9.2 mph - 0.01 in   Overcast
3:08 AM 51.8 °F - 50.0 °F 94% 29.72 in 4.0 mi WNW 6.9 mph - 0.01 in Rain Light Rain
3:15 AM 51.8 °F - 50.0 °F 94% 29.72 in 5.0 mi WNW 5.8 mph - 0.01 in   Overcast
3:53 AM 51.1 °F - 48.0 °F 89% 29.72 in 10.0 mi WNW 5.8 mph - 0.01 in   Overcast
4:34 AM 48.2 °F - 46.4 °F 93% 29.71 in 10.0 mi NW 10.4 mph - N/A   Overcast
4:53 AM 48.9 °F - 46.0 °F 90% 29.71 in 9.0 mi WNW 11.5 mph - N/A   Overcast
5:01 AM 48.2 °F - 46.4 °F 93% 29.71 in 9.0 mi WNW 11.5 mph - N/A   Overcast
5:44 AM 46.4 °F 42.9 °F 44.6 °F 93% 29.72 in 9.0 mi WNW 6.9 mph - N/A   Overcast
5:51 AM 46.4 °F 42.9 °F 44.6 °F 93% 29.72 in 9.0 mi West 6.9 mph - N/A   Overcast
5:53 AM 46.9 °F - 44.1 °F 90% 29.72 in 10.0 mi WNW 9.2 mph - N/A   Overcast
6:34 AM 46.4 °F 42.4 °F 42.8 °F 87% 29.72 in 9.0 mi WNW 8.1 mph - N/A   Overcast
6:53 AM 45.0 °F 38.9 °F 42.1 °F 90% 29.73 in 8.0 mi NW 12.7 mph - N/A   Overcast
6:55 AM 44.6 °F 38.4 °F 42.8 °F 93% 29.72 in 8.0 mi NW 12.7 mph - N/A   Overcast
7:10 AM 44.6 °F 39.7 °F 42.8 °F 93% 29.72 in 8.0 mi NW 9.2 mph - N/A   Overcast
7:21 AM 44.6 °F 37.8 °F 41.0 °F 87% 29.74 in 7.0 mi NW 15.0 mph - N/A   Overcast
7:53 AM 42.1 °F 35.2 °F 39.0 °F 89% 29.74 in 9.0 mi NW 12.7 mph - N/A   Overcast
8:17 AM 42.8 °F 37.5 °F 39.2 °F 87% 29.74 in 9.0 mi NW 9.2 mph - N/A   Overcast
8:53 AM 42.1 °F 37.1 °F 37.9 °F 85% 29.75 in 9.0 mi WNW 8.1 mph - N/A   Overcast
9:23 AM 42.8 °F 36.2 °F 35.6 °F 76% 29.75 in 10.0 mi WNW 12.7 mph 18.4 mph N/A   Overcast
9:51 AM 42.8 °F 36.6 °F 35.6 °F 76% 29.75 in 10.0 mi WNW 11.5 mph - N/A   Overcast
9:53 AM 42.1 °F 36.1 °F 34.0 °F 73% 29.76 in 10.0 mi WNW 10.4 mph - N/A   Overcast
10:53 AM 42.1 °F 36.1 °F 34.0 °F 73% 29.75 in 10.0 mi WNW 10.4 mph - N/A   Mostly Cloudy
11:09 AM 42.8 °F 37.5 °F 33.8 °F 70% 29.74 in 10.0 mi WNW 9.2 mph - N/A   Overcast
11:53 AM 42.1 °F 38.4 °F 35.1 °F 76% 29.77 in 10.0 mi Variable 5.8 mph - N/A   Overcast
12:53 PM 39.9 °F 31.8 °F 33.1 °F 77% 29.75 in 10.0 mi NW 15.0 mph - N/A   Overcast
1:53 PM 37.9 °F 29.6 °F 30.9 °F 76% 29.76 in 10.0 mi NW 13.8 mph 19.6 mph N/A   Overcast
2:53 PM 36.0 °F 26.3 °F 30.0 °F 79% 29.78 in 10.0 mi WNW 16.1 mph - N/A   Overcast
3:53 PM 34.0 °F 25.0 °F 27.0 °F 75% 29.81 in 9.0 mi WNW 12.7 mph - 0.00 in   Overcast
4:53 PM 34.0 °F 28.0 °F 28.0 °F 79% 29.82 in 10.0 mi WNW 6.9 mph - N/A   Overcast
5:53 PM 33.1 °F 26.9 °F 28.9 °F 85% 29.84 in 9.0 mi WNW 6.9 mph - 0.00 in   Overcast
6:53 PM 34.0 °F 28.8 °F 28.0 °F 79% 29.87 in 10.0 mi WNW 5.8 mph - N/A   Overcast
7:53 PM 34.0 °F 25.5 °F 27.0 °F 75% 29.89 in 10.0 mi WNW 11.5 mph - N/A   Overcast
8:53 PM 34.0 °F 27.2 °F 28.0 °F 79% 29.92 in 10.0 mi West 8.1 mph - N/A   Overcast
9:53 PM 33.1 °F 26.9 °F 27.0 °F 78% 29.94 in 10.0 mi WNW 6.9 mph - N/A   Overcast
10:53 PM 33.1 °F 26.9 °F 28.0 °F 82% 29.96 in 9.0 mi West 6.9 mph - N/A   Overcast
11:50 PM 33.8 °F 28.6 °F 28.4 °F 81% 29.96 in 8.0 mi WNW 5.8 mph - N/A   Overcast
11:53 PM 33.1 °F 26.9 °F 28.0 °F 82% 29.97 in 9.0 mi WNW 6.9 mph - N/A   Overcast